TimeEDT,TemperatureF,Dew PointF,Humidity,Sea Level PressureIn,VisibilityMPH,Wind Direction,Wind SpeedMPH,Gust SpeedMPH,PrecipitationIn,Events,Conditions,WindDirDegrees,DateUTC
12:52 AM,72.0,69.1,91,29.89,8.0,South,5.8,-,N/A,,Partly Cloudy,190,2012-09-08 04:52:00
1:13 AM,71.6,69.8,94,29.89,9.0,SSW,6.9,-,N/A,,Mostly Cloudy,210,2012-09-08 05:13:00
1:47 AM,73.4,69.8,88,29.89,8.0,SSW,6.9,-,N/A,,Overcast,200,2012-09-08 05:47:00
1:52 AM,73.0,69.1,87,29.89,9.0,SSW,4.6,-,N/A,,Overcast,200,2012-09-08 05:52:00
2:52 AM,73.0,69.1,87,29.92,9.0,SSW,6.9,-,N/A,,Scattered Clouds,200,2012-09-08 06:52:00
3:30 AM,73.4,69.8,88,29.92,10.0,SSW,9.2,-,N/A,,Mostly Cloudy,210,2012-09-08 07:30:00
3:52 AM,73.0,69.1,87,29.91,10.0,SSW,8.1,-,N/A,,Mostly Cloudy,210,2012-09-08 07:52:00
4:36 AM,71.6,69.8,94,29.90,10.0,Variable,3.5,-,N/A,,Scattered Clouds,0,2012-09-08 08:36:00
4:52 AM,71.1,69.1,93,29.89,10.0,South,5.8,-,N/A,,Clear,190,2012-09-08 08:52:00
5:02 AM,71.6,69.8,94,29.89,10.0,South,4.6,-,N/A,,Scattered Clouds,180,2012-09-08 09:02:00
5:14 AM,71.6,69.8,94,29.89,10.0,SSW,6.9,-,N/A,,Mostly Cloudy,200,2012-09-08 09:14:00
6:52 AM,72.0,70.0,93,29.89,10.0,SSW,6.9,-,N/A,,Overcast,200,2012-09-08 10:52:00
7:23 AM,73.4,69.8,88,29.89,10.0,SSW,8.1,-,N/A,,Overcast,210,2012-09-08 11:23:00
7:52 AM,73.9,69.1,85,29.89,10.0,SSW,10.4,17.3,N/A,,Overcast,200,2012-09-08 11:52:00
8:52 AM,75.0,70.0,84,29.88,10.0,South,8.1,17.3,N/A,,Overcast,190,2012-09-08 12:52:00
9:15 AM,75.2,69.8,83,29.88,10.0,South,11.5,16.1,N/A,,Mostly Cloudy,180,2012-09-08 13:15:00
9:22 AM,75.2,69.8,83,29.87,10.0,South,8.1,16.1,N/A,,Mostly Cloudy,190,2012-09-08 13:22:00
9:52 AM,75.9,69.1,79,29.86,10.0,South,11.5,20.7,N/A,,Mostly Cloudy,180,2012-09-08 13:52:00
10:00 AM,77.0,69.8,78,29.86,10.0,South,13.8,21.9,N/A,,Partly Cloudy,180,2012-09-08 14:00:00
10:52 AM,78.1,68.0,71,29.85,10.0,South,11.5,24.2,N/A,,Partly Cloudy,180,2012-09-08 14:52:00
11:42 AM,78.8,68.0,69,29.84,10.0,South,11.5,21.9,N/A,,Mostly Cloudy,190,2012-09-08 15:42:00
11:52 AM,78.1,68.0,71,29.83,10.0,South,12.7,24.2,N/A,,Mostly Cloudy,190,2012-09-08 15:52:00
12:20 PM,80.6,68.0,65,29.82,10.0,South,15.0,25.3,N/A,,Mostly Cloudy,180,2012-09-08 16:20:00
12:52 PM,80.1,68.0,67,29.81,10.0,South,15.0,25.3,N/A,,Scattered Clouds,190,2012-09-08 16:52:00
1:45 PM,78.8,69.8,74,29.79,10.0,South,11.5,23.0,N/A,,Mostly Cloudy,180,2012-09-08 17:45:00
1:52 PM,79.0,69.1,72,29.79,10.0,South,11.5,23.0,N/A,,Mostly Cloudy,180,2012-09-08 17:52:00
2:20 PM,77.0,68.0,74,29.78,10.0,South,11.5,24.2,N/A,,Overcast,180,2012-09-08 18:20:00
2:52 PM,78.1,69.1,74,29.77,10.0,South,12.7,23.0,N/A,,Overcast,190,2012-09-08 18:52:00
3:52 PM,78.1,71.1,79,29.73,10.0,South,10.4,25.3,N/A,,Overcast,180,2012-09-08 19:52:00
4:52 PM,78.1,72.0,81,29.71,10.0,South,9.2,25.3,N/A,,Overcast,190,2012-09-08 20:52:00
5:06 PM,78.8,71.6,78,29.71,10.0,South,13.8,24.2,N/A,,Overcast,190,2012-09-08 21:06:00
5:52 PM,78.1,72.0,81,29.69,10.0,SSW,13.8,21.9,N/A,,Overcast,200,2012-09-08 21:52:00
6:52 PM,77.0,73.0,88,29.68,10.0,South,13.8,23.0,N/A,,Overcast,190,2012-09-08 22:52:00
7:52 PM,77.0,72.0,84,29.70,10.0,SSW,12.7,24.2,N/A,,Overcast,200,2012-09-08 23:52:00
8:52 PM,78.1,72.0,81,29.69,10.0,SSW,18.4,27.6,N/A,,Overcast,200,2012-09-09 00:52:00
9:29 PM,77.0,73.4,89,29.68,10.0,SSW,17.3,27.6,N/A,,Overcast,200,2012-09-09 01:29:00
9:52 PM,78.1,72.0,81,29.67,10.0,SSW,17.3,27.6,N/A,,Overcast,210,2012-09-09 01:52:00
10:41 PM,75.2,71.6,89,29.69,2.5,SW,19.6,25.3,0.07,Rain,Heavy Rain,220,2012-09-09 02:41:00
10:52 PM,73.9,71.1,91,29.68,2.5,SSW,11.5,29.9,0.14,Rain,Heavy Rain,210,2012-09-09 02:52:00
11:00 PM,73.4,71.6,94,29.69,5.0,SW,12.7,25.3,0.01,Rain,Light Rain,220,2012-09-09 03:00:00
11:11 PM,73.4,71.6,94,29.70,3.0,WSW,11.5,-,0.07,Rain,Rain,240,2012-09-09 03:11:00
11:14 PM,73.4,71.6,94,29.70,1.8,West,15.0,23.0,0.14,Rain,Heavy Rain,260,2012-09-09 03:14:00
11:52 PM,71.1,66.9,87,29.71,10.0,West,5.8,-,0.14,,Mostly Cloudy,270,2012-09-09 03:52:00